星链-31912 (STARLINK-31912 )

导读

STARLINK-31912是美国SpaceX公司星链星座的一员,于2024年5月6日发射升空,属于低轨卫星互联网卫星。它运行在近地轨道,和星链其他卫星一同构建全球覆盖的卫星互联网,能为偏远地区、海洋等传统网络覆盖薄弱区域提供高速宽带服务,还配备激光通信终端,支持星间高速数据传输,支撑天地一体化网络建设,是SpaceX大规模星座部署的组成部分。

Basic Information
目录编号:
59656
目录名称:
STARLINK-31912
国际标识:
2024-084C
轨道中心:
EARTH
卫星名称:
星链-31912
卫星全名:
星链-31912 (STARLINK-31912 )
卫星状态:
在轨 (已飞行851 天)
发射日期:
2024-05-06 UTC
国别 :
美国 (US)
星等 :
--
Orbit Information
数据来源 国际轨道数据 AOE轨道数据
星历时间 2026-09-04T00:33:54+0800
13小时前
查看轨道信息
2026-08-29T23:00:00+0800
5天前
查看轨道信息
半长轴 6861.19km 6861.223km
偏心率 0.0000895 0.000164
轨道倾角 43.001° 43.003°
近地点辐角 227.622° 254.763°
升交点赤经 116.751° 145.363°
平近点角 132.455° 297.570°
近地点 482.438km 481.96km
远地点 483.668km 484.212km
周期 94.267分钟 94.267分钟
每日圈数 15.27579 15.275679
Detailed Information
固有亮度:
5
最大亮度:
1.5
卫星平台:
Starlink v2.0 mini
覆盖范围:
全球
运营商:
太空探索技术公司
运营商所在国:
美国
制造商(研发单位):
太空探索技术公司
制造商所在国:
美国
使用方式:
暂无
Satellite Introduction
星链(Starlink)计划是由太空探索技术公司(SpaceX)提出的一个巨型低轨卫星互联网星座项目,计划在2019年至2024年间在太空搭建由约1.2万颗卫星组成的“星链”网络,其中1584颗将部署在地球上空550千米处的近地轨道,并从2020年开始工作。该卫星仍在工作。
2D Orbit Map
3D Orbit Map
Orbit Altitude Analysis Chart
Orbit Inclination Analysis Chart
Orbit Comprehensive Analysis Chart
View Comprehensive Chart
Conjunction Data List
Event ID Objects TCA Miss Dist (km) Collision Risk Probability Collision Risk Index (CRI) Action
CDM_260904-070405-965606-394121
2026-09-04T
07:04:52+0000
0.507 km
远距离
1.366302E-4 高风险 0.78
CDM_260905-054005-965606-409221
OBJECT F (64092)
2026-09-05T
05:40:05+0000
1.156 km
极远距离
1.557917E-5 中风险 0.59
CDM_260905-113705-641205-965621
2026-09-05T
11:37:01+0000
1.432 km
极远距离
5.947267E-6 低风险 0.5
CDM_260903-144405-304705-965621
2026-09-03T
14:44:23+0000
1.958 km
极远距离
2.220183E-6 低风险 0.42
CDM_260905-152605-304705-965621
2026-09-05T
15:26:21+0000
2.092 km
极远距离
1.785874E-6 低风险 0.4
CDM_260905-135205-304705-965621
2026-09-05T
13:52:05+0000
2.228 km
极远距离
1.556346E-6 低风险 0.39
CDM_260905-100205-641205-965621
2026-09-05T
10:02:51+0000
2.381 km
极远距离
1.514602E-6 低风险 0.39
CDM_260902-142305-304705-965621
2026-09-02T
14:23:31+0000
2.765 km
极远距离
1.155776E-6 低风险 0.36
CDM_260903-131005-304705-965621
2026-09-03T
13:10:08+0000
2.972 km
极远距离
1.027994E-6 低风险 0.35